Regional Weather Roundup
Issued by NWS

Home | Current Version | Previous Version | Graphics & Text | Print | Product List | Glossary On
Versions: 1 2 3 4 5 6 7 8 9 10 11 12 13 14 15 16 17 18 19 20 21 22 23 24 25 26 27 28 29 30 31 32 33 34 35 36 37 38 39 40 41 42 43 44 45 46 47 48 49 50
000
ASUS43 KDMX 291307
RWRIA

WEATHER ROUNDUP FOR IOWA
NATIONAL WEATHER SERVICE DES MOINES IA
800 AM CDT SAT AUG 29 2015

NOTE: "FAIR" INDICATES FEW OR NO CLOUDS BELOW 12,000 FEET WITH NO
SIGNIFICANT WEATHER AND/OR OBSTRUCTIONS TO VISIBILITY.

* - THESE STATIONS ARE NOT NWS STATIONS...THUS NOT UNDER NWS
QUALITY CONTROL.  THEY ALSO DO NOT REPORT WEATHER SUCH
AS PRECIPITATION OR FOG.

IAZ001>003-012>014-020>022-031>034-043>046-291400-
   NORTHWEST IOWA

CITY           SKY/WX    TMP DP  RH WIND       PRES   REMARKS
CARROLL *      CLOUDY    61  61 100 N7        30.04R FOG
CHEROKEE *     CLOUDY    57  57 100 CALM      30.07R FOG
DENISON *      CLOUDY    59  59 100 N6        30.04R FOG
LE MARS *      FOG       57  57 100 N5        30.08R VSB 1/2
ORANGE CITY *  FOG       57  57 100 CALM      30.08R VSB 1/2
SHELDON *      FOG       57  57 100 CALM      30.06R VSB 1/4
SIOUX CITY     CLOUDY    61  56  83 N3        30.07R
SPENCER        CLOUDY    57  55  93 NE3       30.07R FOG
STORM LAKE *   CLOUDY    57  57 100 N7        30.07R FOG
$$

IAZ055>058-069>071-079>083-090>094-291400-
   SOUTHWEST IOWA

CITY           SKY/WX    TMP DP  RH WIND       PRES   REMARKS
ATLANTIC *     CLOUDY    63  61  94 N7        30.04R
AUDUBON *      CLOUDY    61  59  94 N6        30.05R FOG
CLARINDA *     CLOUDY    63  63 100 N7        30.04R FOG
COUNCIL BLFS * CLOUDY    59  59 100 N9        30.06R FOG
CRESTON *      CLOUDY    63  61  94 N8        30.04R FOG
HARLAN  *      CLOUDY    61 N/A N/A NE7       30.09R HAZE
LAMONI         CLOUDY    65  63  93 N12       30.00R
RED OAK *      CLOUDY    63  61  94 N9        30.04R FOG
SHENANDOAH *   CLOUDY    63  63 100 N7        30.04R FOG
$$

IAZ047>049-059>061-072>074-084-291400-
   CENTRAL IOWA

CITY           SKY/WX    TMP DP  RH WIND       PRES   REMARKS
AMES           CLOUDY    62  61  96 N12       30.02R FOG
ANKENY *       CLOUDY    63  63 100 N9        30.00R
CHARITON *     FOG       64  64 100 NW9       30.00R VSB 3/4
DES MOINES     CLOUDY    64  61  90 N8        30.00R
GRINNELL*      CLOUDY    66  64  94 N6        30.00R FOG
KNOXVILLE *    CLOUDY    64  63  94 NW6       29.98R FOG
MARSHALLTOWN   CLOUDY    63  63 100 N8        30.00R FOG
PELLA *        FOG       64  64 100 W5        30.00R VSB 1/2
PERRY *        CLOUDY    63  63 100 N6        30.03R FOG
$$

IAZ004>006-015-016-023>025-035-036-291400-
   NORTH CENTRAL IOWA

CITY           SKY/WX    TMP DP  RH WIND       PRES   REMARKS
ALGONA *       FOG       57  57 100 NE7       30.06R VSB 0
CLARION *      CLOUDY    61  59  94 N8        30.04R FOG
ESTHERVILLE    FOG       56  56 100 N6        30.06R VSB 1/4
FORT DODGE *   CLOUDY    57  55  94 N7        30.05R VSB 1/2
MASON CITY     CLOUDY    60  59  96 N9        30.05R FOG
FOREST CITY *  FOG       59  59 100 N6        30.05R VSB 1/2
IOWA FALLS *   CLOUDY    63  63 100 N6        30.03R FOG
$$

IAZ007>011-017>019-026>030-037>042-050>054-066-291400-
   NORTHEAST IOWA

CITY           SKY/WX    TMP DP  RH WIND       PRES   REMARKS
CEDAR RAPIDS   CLOUDY    66  66 100 CALM      29.97R FOG
CHARLES CITY * FOG       61  61 100 NE8       30.03R VSB 1/4
CLINTON *      CLOUDY    64  63  94 SE5       30.01R
DECORAH *      FOG       59  59 100 N8G14     30.02S VSB 1/2
DUBUQUE        FOG       65  63  93 N3        30.00R VSB 1/2
MONTICELLO *   CLOUDY    66  64  94 CALM      29.98R FOG
OELWEIN *      FOG       63  63 100 N8        30.01R VSB 1/4
WATERLOO       CLOUDY    64  62  93 N7        29.99R
$$

IAZ064-065-067-068-078-291400-
   EAST CENTRAL IOWA

CITY           SKY/WX    TMP DP  RH WIND       PRES   REMARKS
DAVENPORT      CLOUDY    67  64  90 SW3       29.98R
IOWA CITY      LGT RAIN  68  67  96 CALM      29.99R FOG
MT. PLEASANT * CLOUDY    70  63  78 SW8       29.97S
MUSCATINE *    CLOUDY    70  64  83 S5        29.97R
QUAD CITIES    CLOUDY    69  63  81 SW3       29.97R
$$

IAZ062-063-075>077-085>089-095>099-291400-
   SOUTHEAST IOWA

CITY           SKY/WX    TMP DP  RH WIND       PRES   REMARKS
BURLINGTON     CLOUDY    68  64  87 S6        29.97S
FAIRFIELD *    CLOUDY    68  64  88 SW5       29.97R
FORT MADISON * CLOUDY    68  64  88 SW5       29.99R
KEOKUK *       CLOUDY    70  64  83 SW6       29.97S
OSKALOOSA *    DRIZZLE   66  66 100 CALM      29.98R
CENTERVILLE *  CLOUDY    68  66  94 W5        30.00R
OTTUMWA        CLOUDY    68  66  93 SW5       29.96R
WASHINGTON *     N/A    N/A N/A N/A MISG        N/A
$$

ABBREVIATIONS USED IN REMARKS
   TC - TEMPERATURES IN CELSIUS
  WCI - WIND CHILL INDEX
   HX - HEAT INDEX
  VSB - VISIBILITY
$$



USA.gov is the U.S. government's official web portal to all federal, state and local government web resources and services.